Location: �chenoz-la-M�line
(47.6009°N, 6.1354°E)
Time: 12:57:08
(UTC+00:00)

CZ-2C R/B - Pass Details

Date: 27 January 2021
Orbit: 389 x 584 km, 35.0° (Epoch: 02 March)

Event Time Altitude Azimuth Distance (km) Brightness Sun altitude
Exits shadow 05:18:16 11° 209° (SSW) 1,757 3.7 -18.4°
Maximum altitude 05:19:21 12° 193° (SSW) 1,687 3.7 -18.3°
Drops below altitude 10° 05:21:05 10° 169° (SSE) 1,812 4.2 -18.0°
Sets 05:24:30 0° 138° (SE) 2,655 5.6 -17.4°
